Location: Buckeye Ditch
(40.9104°N, 122.9517°W)
Time: 14:00:36
(UTC+00:00)

Cosmos 1975 - Visible Passes

Search period start: 25 July 2024 00:00
Search period end: 04 August 2024 00:00
Orbit: 510 x 532 km, 82.5° (Epoch: 24 July)

Date Brightness Start Highest point End Pass type
(mag) Time Alt. Az. Time Alt. Az. Time Alt. Az.
25 Jul 3.0 11:16:30 23° S 11:18:44 66° E 11:22:32 10° NNE visible
26 Jul 3.2 11:03:31 28° SSE 11:05:18 55° E 11:09:02 10° NNE visible
27 Jul 3.5 10:50:31 32° SE 10:51:50 46° E 10:55:30 10° NNE visible
27 Jul 4.9 12:26:39 10° W 12:27:55 11° WNW 12:29:11 10° NW visible
28 Jul 3.8 10:37:27 33° SE 10:38:22 39° E 10:41:55 10° NNE visible
28 Jul 4.8 12:12:35 10° W 12:14:22 13° WNW 12:16:15 10° NW visible
29 Jul 4.0 10:24:21 31° ESE 10:24:52 33° E 10:28:19 10° NNE visible
29 Jul 4.6 11:59:29 13° W 12:00:47 15° WNW 12:03:05 10° NW visible
30 Jul 4.3 10:11:13 28° E 10:11:21 28° E 10:14:39 10° NNE visible
30 Jul 4.4 11:46:20 16° W 11:47:11 18° WNW 11:49:50 10° NNW visible
31 Jul 4.6 09:58:02 24° E 09:58:02 24° E 10:00:56 10° NE visible
31 Jul 4.2 11:33:09 20° W 11:33:35 20° WNW 11:36:29 10° NNW visible
01 Aug 4.9 09:44:48 20° ENE 09:44:48 20° ENE 09:47:10 10° NE visible
01 Aug 4.1 11:19:55 24° WNW 11:19:58 24° WNW 11:23:05 10° NNW visible
02 Aug 5.2 09:31:32 17° ENE 09:31:32 17° ENE 09:33:20 10° NE visible
02 Aug 4.0 11:06:39 27° WNW 11:06:39 27° WNW 11:09:37 10° NNW visible
03 Aug 5.4 09:18:14 14° ENE 09:18:14 14° ENE 09:19:24 10° NE visible
03 Aug 3.9 10:53:21 30° NW 10:53:21 30° NW 10:56:07 10° NNW visible
